This demonstration page uses our WeatherBlox Daily Observations layout. Learn more.

39.08367, -84.50855

Hourly Observations for June 27, 2019

Temp ( °F °C ) Dew Point ( °F °C ) Humidity (%) Winds ( mph kmh ) Pressure ( in mb ) Visibility ( mi km ) Precip ( " mm )
12:53 am 00:53 Clear 70 21.1 69 20.6 97 97 Calm 30.12 1020 10 16.09344 0 0
1:53 am 01:53 Clear 70 21.1 69 20.6 97 97 Calm 30.12 1020 9 14.484096 0 0
2:53 am 02:53 Clear 69 20.6 68 20 96 96 Calm 30.12 1020 7 11.265408 0 0
3:53 am 03:53 Clear 68 20 67 19.4 96 96 Calm 30.15 1021 8 12.874752 0 0
4:53 am 04:53 Clear with Mist and Fog 68 20 67 19.4 96 96 VRB 5 7 30.15 1021 5 8.04672 0 0
5:53 am 05:53 Mostly Clear 67 19.4 66 18.9 97 97 undefined N/A 30.15 1021 8 12.874752 0 0
6:53 am 06:53 Sunny with Mist and Fog 68 20 68 20 100 100 Calm 30.15 1021 6 9.656064 0 0
7:53 am 07:53 Sunny 70 21.1 69 20.6 97 97 Calm 30.18 1022 7 11.265408 0 0
8:53 am 08:53 Sunny 75 23.9 71 21.7 88 88 Calm 30.18 1022 10 16.09344 0 0
9:53 am 09:53 Sunny 78 25.6 71 21.7 79 79 S 6 9 30.18 1022 10 16.09344 0 0
10:53 am 10:53 Sunny 79 26.1 71 21.7 77 77 WSW 3 6 30.18 1022 10 16.09344 0 0
11:53 am 11:53 Sunny 83 28.3 72 22.2 70 70 SSW 7 11 30.18 1022 10 16.09344 0 0
12:53 pm 12:53 Sunny 86 30 69 20.6 57 57 S 9 15 30.15 1021 10 16.09344 0 0
1:53 pm 13:53 Sunny 87 30.6 68 20 53 53 S 9 15 30.15 1021 10 16.09344 0 0
2:53 pm 14:53 Partly Cloudy 87 30.6 68 20 53 53 SSW 10 17 30.15 1021 10 16.09344 0 0
3:53 pm 15:53 Sunny 87 30.6 65 18.3 48 48 SSW 9 15 30.12 1020 10 16.09344 0 0
4:53 pm 16:53 Sunny 88 31.1 66 18.9 48 48 SW 8 13 30.12 1020 10 16.09344 0 0
5:53 pm 17:53 Mostly Sunny 87 30.6 67 19.4 51 51 SSW 7 11 30.12 1020 10 16.09344 0 0
6:53 pm 18:53 Sunny 86 30 68 20 55 55 S 8 13 30.12 1020 10 16.09344 0 0
7:53 pm 19:53 Sunny 84 28.9 70 21.1 63 63 S 5 7 30.12 1020 10 16.09344 0 0
8:53 pm 20:53 Sunny 78 25.6 71 21.7 79 79 SSW 3 6 30.12 1020 10 16.09344 0 0
9:53 pm 21:53 Clear 75 23.9 72 22.2 90 90 Calm 30.15 1021 10 16.09344 0 0
10:53 pm 22:53 Clear 74 23.3 71 21.7 91 91 Calm 30.18 1022 10 16.09344 0.001 0.001
11:53 pm 23:53 Clear 72 22.2 70 21.1 94 94 S 3 6 30.18 1022 10 16.09344 0 0

Powered by AerisWeather